This demonstration page uses our WeatherBlox Daily Observations layout. Learn more.

Hourly Observations for May 4, 2016

Temp ( °F °C ) Dew Point ( °F °C ) Humidity (%) Winds ( mph kmh ) Pressure ( in mb ) Visibility ( mi km ) Precip ( " mm )
12:15 am 00:15 Cloudy with Light Rain 59 15 59 15 100 100 Calm 29.8 1009 3 4.82802 0.02 0.508
12:35 am 00:35 Cloudy with Rain 59 15 59 15 100 100 SSW 6 9 29.8 1009 2.5 4.02335 0.07 1.778
12:55 am 00:55 Cloudy with Light Rain 59 15 59 15 100 100 Calm 29.8 1009 3 4.82802 0.08 2.032
1:15 am 01:15 Cloudy with Light Drizzle 57 14 57 14 100 100 Calm 29.77 1008 3 4.82802 0 0
1:35 am 01:35 Cloudy with Mist and Fog 57 14 57 14 100 100 ESE 3 6 29.77 1008 3 4.82802 0 0
1:55 am 01:55 Cloudy with Mist and Fog 57 14 57 14 100 100 Calm 29.77 1008 4 6.43736 0.01 0.254
2:15 am 02:15 Cloudy with Mist and Fog 57 14 57 14 100 100 E 3 6 29.77 1008 5 8.0467 0 0
2:35 am 02:35 Cloudy with Mist and Fog 57 14 57 14 100 100 Calm 29.77 1008 5 8.0467 0 0
2:55 am 02:55 Cloudy with Mist and Fog 57 14 57 14 100 100 Calm 29.77 1008 3 4.82802 0 0
3:15 am 03:15 Cloudy with Mist and Fog 57 14 57 14 100 100 Calm 29.74 1007 4 6.43736 0 0
3:35 am 03:35 Cloudy with Mist and Fog 57 14 57 14 100 100 ENE 5 7 29.74 1007 4 6.43736 0 0
3:55 am 03:55 Cloudy with Mist and Fog 55 13 55 13 100 100 Calm 29.74 1007 3 4.82802 0 0
4:15 am 04:15 Cloudy with Mist and Fog 55 13 55 13 100 100 S 3 6 29.74 1007 3 4.82802 0 0
4:35 am 04:35 Cloudy with Mist and Fog 57 14 57 14 100 100 ESE 3 6 29.74 1007 4 6.43736 0 0
4:55 am 04:55 Cloudy with Mist and Fog 55 13 55 13 100 100 SSE 3 6 29.74 1007 4 6.43736 0 0
5:15 am 05:15 Cloudy with Mist and Fog 55 13 55 13 100 100 ESE 5 7 29.74 1007 4 6.43736 0 0
5:35 am 05:35 Cloudy with Mist and Fog 55 13 55 13 100 100 ESE 3 6 29.74 1007 4 6.43736 0 0
5:55 am 05:55 Cloudy with Mist and Fog 55 13 55 13 100 100 ESE 6 9 29.74 1007 5 8.0467 0 0
6:15 am 06:15 Cloudy with Mist and Fog 55 13 55 13 100 100 ESE 5 7 29.74 1007 5 8.0467 0 0
6:35 am 06:35 Cloudy with Mist and Fog 55 13 55 13 100 100 ESE 5 7 29.74 1007 3 4.82802 0 0
6:55 am 06:55 Cloudy with Mist and Fog 55 13 55 13 100 100 ESE 6 9 29.74 1007 3 4.82802 0 0
7:15 am 07:15 Cloudy with Mist and Fog 55 13 55 13 100 100 Calm 29.74 1007 4 6.43736 0 0
7:35 am 07:35 Cloudy with Mist and Fog 55 13 55 13 100 100 E 3 6 29.74 1007 3 4.82802 0 0
7:55 am 07:55 Cloudy with Mist and Fog 55 13 55 13 100 100 ESE 5 7 29.74 1007 5 8.0467 0 0
8:15 am 08:15 Cloudy 55 13 55 13 100 100 E 5 7 29.74 1007 10 16.0934 0 0
8:35 am 08:35 Cloudy 55 13 55 13 100 100 ESE 5 7 29.74 1007 10 16.0934 0 0
8:55 am 08:55 Cloudy 55 13 55 13 100 100 ESE 6 9 29.74 1007 7 11.26538 0 0
9:15 am 09:15 Cloudy with Mist and Fog 55 13 55 13 100 100 ESE 3 6 29.74 1007 5 8.0467 0 0
9:35 am 09:35 Cloudy with Mist and Fog 55 13 55 13 100 100 ESE 3 6 29.74 1007 3 4.82802 0 0
9:55 am 09:55 Cloudy with Mist and Fog 54 12 54 12 100 100 E 7 11 29.74 1007 2 3.21868 0 0
10:15 am 10:15 Cloudy with Mist and Fog 55 13 55 13 100 100 ESE 5 7 29.74 1007 5 8.0467 0 0
10:35 am 10:35 Cloudy 55 13 55 13 100 100 E 7 11 29.74 1007 7 11.26538 0 0
10:55 am 10:55 Cloudy 55 13 55 13 100 100 ESE 7 11 29.74 1007 7 11.26538 0 0
11:15 am 11:15 Cloudy 55 13 55 13 100 100 SE 5 7 29.74 1007 7 11.26538 0 0
11:35 am 11:35 Cloudy 55 13 55 13 100 100 SE 3 6 29.74 1007 7 11.26538 0 0
11:55 am 11:55 Cloudy with Mist and Fog 55 13 55 13 100 100 SE 3 6 29.74 1007 4 6.43736 0 0
12:15 pm 12:15 Cloudy with Mist and Fog 57 14 55 13 94 94 SE 5 7 29.71 1006 5 8.0467 0 0
12:35 pm 12:35 Cloudy with Mist and Fog 59 15 55 13 88 88 Calm 29.71 1006 5 8.0467 0 0
12:55 pm 12:55 Cloudy 59 15 55 13 88 88 Calm 29.71 1006 7 11.26538 0 0
1:15 pm 13:15 Cloudy 61 16 55 13 83 83 E 5 7 29.68 1005 7 11.26538 0 0
1:35 pm 13:35 Cloudy 61 16 55 13 83 83 S 3 6 29.68 1005 10 16.0934 0 0
1:55 pm 13:55 Cloudy 63 17 55 13 77 77 ESE 6 9 29.68 1005 10 16.0934 0 0
2:15 pm 14:15 Cloudy 63 17 55 13 77 77 SE 5 7 29.68 1005 10 16.0934 0 0
2:35 pm 14:35 Cloudy 63 17 55 13 77 77 SE 7 11 29.68 1005 10 16.0934 0 0
2:55 pm 14:55 Cloudy 63 17 55 13 77 77 ENE 5 7 29.68 1005 10 16.0934 0 0
3:15 pm 15:15 Cloudy 63 17 55 13 77 77 ESE 6 9 29.65 1004 10 16.0934 0 0
3:35 pm 15:35 Cloudy 63 17 55 13 77 77 ESE 8 13 29.65 1004 10 16.0934 0 0
3:55 pm 15:55 Cloudy 63 17 55 13 77 77 ENE 7 11 29.65 1004 10 16.0934 0 0
4:15 pm 16:15 Cloudy 63 17 55 13 77 77 E 5 7 29.65 1004 10 16.0934 0 0
4:35 pm 16:35 Cloudy 63 17 55 13 77 77 ENE 5 7 29.65 1004 10 16.0934 0 0
4:55 pm 16:55 Cloudy 63 17 55 13 77 77 ENE 8 13 29.65 1004 10 16.0934 0 0
5:15 pm 17:15 Cloudy 63 17 55 13 77 77 E 6 9 29.65 1004 10 16.0934 0 0
5:35 pm 17:35 Cloudy 61 16 55 13 83 83 ESE 8 13 29.65 1004 10 16.0934 0 0
5:55 pm 17:55 Cloudy 61 16 55 13 83 83 E 5 7 29.65 1004 10 16.0934 0 0
6:15 pm 18:15 Cloudy 61 16 55 13 83 83 ENE 6 9 29.65 1004 10 16.0934 0 0
6:35 pm 18:35 Cloudy 61 16 55 13 83 83 ENE 7 11 29.65 1004 10 16.0934 0 0
6:55 pm 18:55 Cloudy 61 16 55 13 83 83 E 5 7 29.65 1004 7 11.26538 0 0
7:15 pm 19:15 Cloudy 59 15 55 13 88 88 ENE 5 7 29.65 1004 7 11.26538 0 0
7:35 pm 19:35 Cloudy with Light Rain 59 15 55 13 88 88 E 7 11 29.68 1005 7 11.26538 0 0
7:50 pm 19:50 Cloudy 59 15 55 13 88 88 E 8 13 29.68 1005 7 11.26538 0 0
8:15 pm 20:15 Cloudy 57 14 55 13 94 94 E 6 9 29.68 1005 10 16.0934 0 0
8:35 pm 20:35 Cloudy with Drizzle 55 13 55 13 100 100 ENE 6 9 29.68 1005 7 11.26538 0 0
8:55 pm 20:55 Cloudy with Light Drizzle 55 13 55 13 100 100 E 7 11 29.71 1006 7 11.26538 0 0
9:15 pm 21:15 Cloudy with Light Drizzle 55 13 55 13 100 100 ESE 6 9 29.71 1006 7 11.26538 0 0
9:35 pm 21:35 Cloudy with Rain 55 13 55 13 100 100 E 6 9 29.68 1005 7 11.26538 0 0
9:55 pm 21:55 Cloudy with Rain 55 13 55 13 100 100 E 6 9 29.68 1005 7 11.26538 0 0
10:15 pm 22:15 Cloudy with Light Drizzle 54 12 54 12 100 100 ENE 3 6 29.71 1006 10 16.0934 0 0
10:35 pm 22:35 Cloudy with Rain 54 12 54 12 100 100 Calm 29.71 1006 7 11.26538 0 0
10:55 pm 22:55 Cloudy with Light Rain 54 12 54 12 100 100 Calm 29.71 1006 7 11.26538 0 0
11:15 pm 23:15 Cloudy 54 12 54 12 100 100 ENE 3 6 29.71 1006 7 11.26538 0 0
11:35 pm 23:35 Cloudy 54 12 54 12 100 100 ESE 5 7 29.71 1006 7 11.26538 0 0
11:55 pm 23:55 Cloudy 54 12 54 12 100 100 ENE 5 7 29.71 1006 7 11.26538 0 0

Powered by AerisWeather